Time,TemperatureF,DewpointF,PressureIn,WindDirection,WindDirectionDegrees,WindSpeedMPH,WindSpeedGustMPH,Humidity,HourlyPrecipIn,Conditions,Clouds,dailyrainin,SoftwareType,DateUTC
2013-06-03 00:07:00,58.0,50.1,29.99,NW,315,6.0,16.0,75,0.00,,,-99.99,Weather View 32 v60,2013-06-03 07:07:00,
2013-06-03 00:17:00,58.0,50.1,29.99,NW,315,6.0,16.0,75,0.00,,,-99.99,Weather View 32 v60,2013-06-03 07:17:00,
2013-06-03 00:22:00,58.0,50.1,29.99,West,270,12.0,16.0,75,0.00,,,-99.99,Weather View 32 v60,2013-06-03 07:22:00,
2013-06-03 00:27:00,58.0,50.5,29.99,NW,315,4.0,15.0,76,0.00,,,-99.99,Weather View 32 v60,2013-06-03 07:27:00,
2013-06-03 00:32:00,58.0,51.2,29.99,NW,315,6.0,15.0,78,0.00,,,-99.99,Weather View 32 v60,2013-06-03 07:32:00,
2013-06-03 00:42:00,58.0,51.5,30.00,NW,315,6.0,15.0,79,0.00,,,-99.99,Weather View 32 v60,2013-06-03 07:42:00,
2013-06-03 00:47:00,57.0,50.9,30.00,NW,315,7.0,15.0,80,0.00,,,-99.99,Weather View 32 v60,2013-06-03 07:47:00,
2013-06-03 00:57:00,57.0,51.5,30.00,NW,315,8.0,15.0,82,0.00,,,-99.99,Weather View 32 v60,2013-06-03 07:57:00,
2013-06-03 01:02:00,57.0,51.9,30.00,NW,315,6.0,15.0,83,0.00,,,-99.99,Weather View 32 v60,2013-06-03 08:02:00,
2013-06-03 01:12:00,57.0,52.2,30.00,NW,315,3.0,15.0,84,0.00,,,-99.99,Weather View 32 v60,2013-06-03 08:12:00,
2013-06-03 01:22:00,56.0,51.9,30.01,WNW,292,5.0,14.0,86,0.00,,,-99.99,Weather View 32 v60,2013-06-03 08:22:00,
2013-06-03 01:27:00,56.0,51.9,30.01,WNW,292,4.0,11.0,86,0.00,,,-99.99,Weather View 32 v60,2013-06-03 08:27:00,
2013-06-03 01:37:00,56.0,51.9,30.01,West,270,3.0,11.0,86,0.00,,,-99.99,Weather View 32 v60,2013-06-03 08:37:00,
2013-06-03 01:42:00,56.0,52.2,30.01,West,270,3.0,11.0,87,0.00,,,-99.99,Weather View 32 v60,2013-06-03 08:42:00,
2013-06-03 01:47:00,55.0,51.5,30.01,NW,315,5.0,11.0,88,0.00,,,-99.99,Weather View 32 v60,2013-06-03 08:47:00,
2013-06-03 01:57:00,55.0,51.8,30.02,NW,315,4.0,11.0,89,0.00,,,-99.99,Weather View 32 v60,2013-06-03 08:57:00,
2013-06-03 02:02:00,55.0,51.8,30.01,NW,315,5.0,11.0,89,0.00,,,-99.99,Weather View 32 v60,2013-06-03 09:02:00,
2013-06-03 02:12:00,55.0,52.4,30.01,WNW,292,4.0,12.0,91,0.00,,,-99.99,Weather View 32 v60,2013-06-03 09:12:00,
2013-06-03 02:17:00,54.0,51.1,30.01,WNW,292,8.0,12.0,90,0.00,,,-99.99,Weather View 32 v60,2013-06-03 09:17:00,
2013-06-03 02:24:00,55.0,52.4,30.01,NW,315,12.0,12.0,91,0.00,,,-99.99,Weather View 32 v60,2013-06-03 09:24:00,
2013-06-03 02:32:00,54.0,51.7,30.02,WNW,292,6.0,12.0,92,0.00,,,-99.99,Weather View 32 v60,2013-06-03 09:32:00,
2013-06-03 02:42:00,54.0,52.0,30.03,NW,315,5.0,12.0,93,0.00,,,-99.99,Weather View 32 v60,2013-06-03 09:42:00,
2013-06-03 02:47:00,54.0,52.3,30.03,NW,315,5.0,12.0,94,0.00,,,-99.99,Weather View 32 v60,2013-06-03 09:47:00,
2013-06-03 02:57:00,53.0,51.3,30.02,WNW,292,5.0,12.0,94,0.00,,,-99.99,Weather View 32 v60,2013-06-03 09:57:00,
2013-06-03 03:02:00,53.0,51.3,30.03,NW,315,4.0,12.0,94,0.00,,,-99.99,Weather View 32 v60,2013-06-03 10:02:00,
2013-06-03 03:12:00,53.0,51.6,30.03,WNW,292,1.0,12.0,95,0.00,,,-99.99,Weather View 32 v60,2013-06-03 10:12:00,
2013-06-03 03:17:00,53.0,52.2,30.03,WNW,292,6.0,12.0,97,0.00,,,-99.99,Weather View 32 v60,2013-06-03 10:17:00,
2013-06-03 03:25:00,53.0,51.9,30.03,West,270,3.0,12.0,96,0.00,,,-99.99,Weather View 32 v60,2013-06-03 10:25:00,
2013-06-03 03:32:00,52.0,51.2,30.03,NW,315,6.0,12.0,97,0.00,,,-99.99,Weather View 32 v60,2013-06-03 10:32:00,
2013-06-03 03:42:00,52.0,51.5,30.03,SW,225,2.0,12.0,98,0.00,,,-99.99,Weather View 32 v60,2013-06-03 10:42:00,
2013-06-03 03:47:00,52.0,51.5,30.03,WNW,292,4.0,12.0,98,0.00,,,-99.99,Weather View 32 v60,2013-06-03 10:47:00,
2013-06-03 03:57:00,51.0,50.5,30.03,NW,315,4.0,12.0,98,0.00,,,-99.99,Weather View 32 v60,2013-06-03 10:57:00,
2013-06-03 04:02:00,51.0,50.5,30.03,West,270,2.0,12.0,98,0.00,,,-99.99,Weather View 32 v60,2013-06-03 11:02:00,
2013-06-03 04:12:00,51.0,51.0,30.04,WNW,292,5.0,12.0,100,0.00,,,-99.99,Weather View 32 v60,2013-06-03 11:12:00,
2013-06-03 04:22:00,51.0,51.0,30.05,SW,225,4.0,12.0,100,0.00,,,-99.99,Weather View 32 v60,2013-06-03 11:22:00,
2013-06-03 04:27:00,50.0,50.0,30.05,West,270,4.0,12.0,100,0.00,,,-99.99,Weather View 32 v60,2013-06-03 11:27:00,
2013-06-03 04:37:00,50.0,50.0,30.05,WNW,292,3.0,12.0,100,0.00,,,-99.99,Weather View 32 v60,2013-06-03 11:37:00,
2013-06-03 04:42:00,50.0,50.0,30.05,West,270,4.0,12.0,100,0.00,,,-99.99,Weather View 32 v60,2013-06-03 11:42:00,
2013-06-03 04:47:00,50.0,50.0,30.05,NW,315,4.0,12.0,100,0.00,,,-99.99,Weather View 32 v60,2013-06-03 11:47:00,
2013-06-03 04:57:00,50.0,50.0,30.05,West,270,2.0,11.0,100,0.00,,,-99.99,Weather View 32 v60,2013-06-03 11:57:00,
2013-06-03 05:02:00,50.0,50.0,30.05,West,270,2.0,11.0,100,0.00,,,-99.99,Weather View 32 v60,2013-06-03 12:02:00,
2013-06-03 05:12:00,50.0,50.0,30.05,NW,315,2.0,11.0,100,0.00,,,-99.99,Weather View 32 v60,2013-06-03 12:12:00,
2013-06-03 05:22:00,49.0,49.0,30.06,West,270,5.0,9.0,100,0.00,,,-99.99,Weather View 32 v60,2013-06-03 12:22:00,
2013-06-03 05:27:00,49.0,49.0,30.06,West,270,1.0,9.0,100,0.00,,,-99.99,Weather View 32 v60,2013-06-03 12:27:00,
2013-06-03 05:32:00,49.0,49.0,30.06,NW,315,2.0,9.0,100,0.00,,,-99.99,Weather View 32 v60,2013-06-03 12:32:00,
2013-06-03 05:42:00,49.0,49.0,30.07,WNW,292,2.0,9.0,100,0.00,,,-99.99,Weather View 32 v60,2013-06-03 12:42:00,
2013-06-03 05:52:00,49.0,49.0,30.07,NW,315,4.0,9.0,100,0.00,,,-99.99,Weather View 32 v60,2013-06-03 12:52:00,
2013-06-03 06:02:00,49.0,49.0,30.06,West,270,2.0,9.0,100,0.00,,,-99.99,Weather View 32 v60,2013-06-03 13:02:00,
2013-06-03 06:07:00,49.0,49.0,30.06,WNW,292,4.0,9.0,100,0.00,,,-99.99,Weather View 32 v60,2013-06-03 13:07:00,
2013-06-03 06:17:00,49.0,49.0,30.06,West,270,0.0,9.0,100,0.00,,,-99.99,Weather View 32 v60,2013-06-03 13:17:00,
2013-06-03 06:27:00,49.0,49.0,30.07,West,270,2.0,9.0,100,0.00,,,-99.99,Weather View 32 v60,2013-06-03 13:27:00,
2013-06-03 06:32:00,50.0,49.2,30.06,NW,315,6.0,9.0,97,0.00,,,-99.99,Weather View 32 v60,2013-06-03 13:32:00,
2013-06-03 06:37:00,50.0,48.1,30.06,West,270,3.0,9.0,93,0.00,,,-99.99,Weather View 32 v60,2013-06-03 13:37:00,
2013-06-03 06:47:00,51.0,47.6,30.06,West,270,7.0,9.0,88,0.00,,,-99.99,Weather View 32 v60,2013-06-03 13:47:00,
2013-06-03 06:52:00,52.0,48.2,30.06,West,270,3.0,9.0,87,0.00,,,-99.99,Weather View 32 v60,2013-06-03 13:52:00,
2013-06-03 07:02:00,53.0,48.6,30.05,West,270,7.0,15.0,85,0.00,,,-99.99,Weather View 32 v60,2013-06-03 14:02:00,
2013-06-03 07:12:00,53.0,50.1,30.06,West,270,6.0,15.0,90,0.00,,,-99.99,Weather View 32 v60,2013-06-03 14:12:00,
2013-06-03 07:17:00,53.0,50.7,30.06,WNW,292,12.0,15.0,92,0.00,,,-99.99,Weather View 32 v60,2013-06-03 14:17:00,
2013-06-03 07:27:00,53.0,48.0,30.06,West,270,8.0,15.0,83,0.00,,,-99.99,Weather View 32 v60,2013-06-03 14:27:00,
2013-06-03 07:37:00,54.0,48.0,30.06,WNW,292,7.0,15.0,80,0.00,,,-99.99,Weather View 32 v60,2013-06-03 14:37:00,
2013-06-03 07:42:00,55.0,48.9,30.06,NW,315,8.0,15.0,80,0.00,,,-99.99,Weather View 32 v60,2013-06-03 14:42:00,
2013-06-03 07:47:00,55.0,48.6,30.06,West,270,7.0,15.0,79,0.00,,,-99.99,Weather View 32 v60,2013-06-03 14:47:00,
2013-06-03 07:57:00,56.0,48.5,30.05,NW,315,10.0,15.0,76,0.00,,,-99.99,Weather View 32 v60,2013-06-03 14:57:00,
2013-06-03 08:02:00,56.0,48.5,30.05,NW,315,9.0,15.0,76,0.00,,,-99.99,Weather View 32 v60,2013-06-03 15:02:00,
2013-06-03 08:12:00,57.0,49.5,30.05,West,270,10.0,14.0,76,0.00,,,-99.99,Weather View 32 v60,2013-06-03 15:12:00,
2013-06-03 08:17:00,57.0,49.5,30.05,NW,315,10.0,14.0,76,0.00,,,-99.99,Weather View 32 v60,2013-06-03 15:17:00,
2013-06-03 08:27:00,57.0,49.5,30.05,WNW,292,10.0,14.0,76,0.00,,,-99.99,Weather View 32 v60,2013-06-03 15:27:00,
2013-06-03 08:32:00,57.0,48.8,30.05,NW,315,10.0,14.0,74,0.00,,,-99.99,Weather View 32 v60,2013-06-03 15:32:00,
2013-06-03 08:42:00,57.0,48.8,30.04,NW,315,9.0,16.0,74,0.00,,,-99.99,Weather View 32 v60,2013-06-03 15:42:00,
2013-06-03 08:47:00,57.0,48.8,30.04,WNW,292,7.0,16.0,74,0.00,,,-99.99,Weather View 32 v60,2013-06-03 15:47:00,
2013-06-03 08:57:00,58.0,49.7,30.04,West,270,15.0,16.0,74,0.00,,,-99.99,Weather View 32 v60,2013-06-03 15:57:00,
2013-06-03 09:02:00,58.0,50.1,30.04,NW,315,5.0,16.0,75,0.00,,,-99.99,Weather View 32 v60,2013-06-03 16:02:00,
2013-06-03 09:12:00,59.0,50.3,30.04,NW,315,7.0,16.0,73,0.00,,,-99.99,Weather View 32 v60,2013-06-03 16:12:00,
2013-06-03 09:17:00,59.0,49.6,30.04,WNW,292,10.0,16.0,71,0.00,,,-99.99,Weather View 32 v60,2013-06-03 16:17:00,
2013-06-03 09:27:00,60.0,50.9,30.03,West,270,10.0,16.0,72,0.00,,,-99.99,Weather View 32 v60,2013-06-03 16:27:00,
2013-06-03 09:32:00,60.0,49.8,30.03,NW,315,4.0,16.0,69,0.00,,,-99.99,Weather View 32 v60,2013-06-03 16:32:00,
2013-06-03 09:42:00,61.0,49.9,30.03,NW,315,6.0,16.0,67,0.00,,,-99.99,Weather View 32 v60,2013-06-03 16:42:00,
2013-06-03 09:47:00,61.0,49.9,30.03,SW,225,7.0,16.0,67,0.00,,,-99.99,Weather View 32 v60,2013-06-03 16:47:00,
2013-06-03 09:57:00,62.0,50.1,30.02,West,270,5.0,16.0,65,0.00,,,-99.99,Weather View 32 v60,2013-06-03 16:57:00,
2013-06-03 10:07:00,62.0,49.7,30.01,WNW,292,7.0,16.0,64,0.00,,,-99.99,Weather View 32 v60,2013-06-03 17:07:00,
2013-06-03 10:17:00,63.0,51.0,30.01,NW,315,7.0,19.0,65,0.00,,,-99.99,Weather View 32 v60,2013-06-03 17:17:00,
2013-06-03 10:27:00,63.0,50.2,30.01,West,270,9.0,19.0,63,0.00,,,-99.99,Weather View 32 v60,2013-06-03 17:27:00,
2013-06-03 10:32:00,63.0,50.2,30.01,West,270,7.0,19.0,63,0.00,,,-99.99,Weather View 32 v60,2013-06-03 17:32:00,
2013-06-03 10:37:00,64.0,49.8,30.01,WSW,247,11.0,19.0,60,0.00,,,-99.99,Weather View 32 v60,2013-06-03 17:37:00,
2013-06-03 10:47:00,64.0,48.9,29.99,WSW,247,5.0,19.0,58,0.00,,,-99.99,Weather View 32 v60,2013-06-03 17:47:00,
2013-06-03 10:57:00,65.0,49.8,29.99,West,270,7.0,19.0,58,0.00,,,-99.99,Weather View 32 v60,2013-06-03 17:57:00,
2013-06-03 11:02:00,66.0,50.8,29.99,West,270,9.0,19.0,58,0.00,,,-99.99,Weather View 32 v60,2013-06-03 18:02:00,
2013-06-03 11:12:00,66.0,50.3,29.99,West,270,10.0,19.0,57,0.00,,,-99.99,Weather View 32 v60,2013-06-03 18:12:00,
2013-06-03 11:17:00,66.0,51.2,29.99,West,270,8.0,16.0,59,0.00,,,-99.99,Weather View 32 v60,2013-06-03 18:17:00,
2013-06-03 11:22:00,66.0,50.8,29.99,West,270,8.0,16.0,58,0.00,,,-99.99,Weather View 32 v60,2013-06-03 18:22:00,
2013-06-03 11:30:00,66.0,50.3,29.99,West,270,6.0,16.0,57,0.00,,,-99.99,Weather View 32 v60,2013-06-03 18:30:00,
2013-06-03 11:37:00,66.0,49.8,29.99,NW,315,14.0,18.0,56,0.00,,,-99.99,Weather View 32 v60,2013-06-03 18:37:00,
2013-06-03 11:47:00,66.0,50.8,29.98,West,270,9.0,18.0,58,0.00,,,-99.99,Weather View 32 v60,2013-06-03 18:47:00,
2013-06-03 11:52:00,67.0,50.3,29.97,NW,315,10.0,18.0,55,0.00,,,-99.99,Weather View 32 v60,2013-06-03 18:52:00,
2013-06-03 11:57:00,67.0,49.8,29.97,WNW,292,8.0,18.0,54,0.00,,,-99.99,Weather View 32 v60,2013-06-03 18:57:00,
2013-06-03 12:07:00,67.0,49.8,29.96,West,270,10.0,18.0,54,0.00,,,-99.99,Weather View 32 v60,2013-06-03 19:07:00,
2013-06-03 12:17:00,68.0,51.2,29.96,NW,315,16.0,18.0,55,0.00,,,-99.99,Weather View 32 v60,2013-06-03 19:17:00,
2013-06-03 12:27:00,68.0,50.7,29.96,NW,315,10.0,18.0,54,0.00,,,-99.99,Weather View 32 v60,2013-06-03 19:27:00,
2013-06-03 12:32:00,68.0,51.2,29.95,NW,315,14.0,19.0,55,0.00,,,-99.99,Weather View 32 v60,2013-06-03 19:32:00,
2013-06-03 12:42:00,68.0,51.2,29.94,WNW,292,13.0,19.0,55,0.00,,,-99.99,Weather View 32 v60,2013-06-03 19:42:00,
2013-06-03 12:47:00,68.0,51.7,29.94,WNW,292,12.0,19.0,56,0.00,,,-99.99,Weather View 32 v60,2013-06-03 19:47:00,
2013-06-03 12:57:00,69.0,50.6,29.94,NW,315,8.0,19.0,52,0.00,,,-99.99,Weather View 32 v60,2013-06-03 19:57:00,
2013-06-03 13:07:00,69.0,50.6,29.94,West,270,10.0,19.0,52,0.00,,,-99.99,Weather View 32 v60,2013-06-03 20:07:00,
2013-06-03 13:17:00,69.0,50.1,29.94,West,270,8.0,19.0,51,0.00,,,-99.99,Weather View 32 v60,2013-06-03 20:17:00,
2013-06-03 13:27:00,69.0,50.6,29.94,NW,315,10.0,19.0,52,0.00,,,-99.99,Weather View 32 v60,2013-06-03 20:27:00,
2013-06-03 13:32:00,70.0,51.5,29.94,NW,315,9.0,19.0,52,0.00,,,-99.99,Weather View 32 v60,2013-06-03 20:32:00,
2013-06-03 13:42:00,70.0,51.0,29.93,West,270,16.0,20.0,51,0.00,,,-99.99,Weather View 32 v60,2013-06-03 20:42:00,
2013-06-03 13:47:00,70.0,52.0,29.93,NW,315,10.0,20.0,53,0.00,,,-99.99,Weather View 32 v60,2013-06-03 20:47:00,
2013-06-03 13:57:00,70.0,51.0,29.93,West,270,10.0,20.0,51,0.00,,,-99.99,Weather View 32 v60,2013-06-03 20:57:00,
2013-06-03 14:02:00,70.0,50.5,29.92,West,270,15.0,20.0,50,0.00,,,-99.99,Weather View 32 v60,2013-06-03 21:02:00,
2013-06-03 14:12:00,70.0,50.5,29.93,West,270,10.0,20.0,50,0.00,,,-99.99,Weather View 32 v60,2013-06-03 21:12:00,
2013-06-03 14:22:00,70.0,51.0,29.91,WNW,292,12.0,22.0,51,0.00,,,-99.99,Weather View 32 v60,2013-06-03 21:22:00,
2013-06-03 14:31:00,70.0,49.4,29.91,WNW,292,15.0,22.0,48,0.00,,,-99.99,Weather View 32 v60,2013-06-03 21:31:00,
2013-06-03 14:37:00,71.0,51.4,29.91,NW,315,8.0,22.0,50,0.00,,,-99.99,Weather View 32 v60,2013-06-03 21:37:00,
2013-06-03 14:47:00,71.0,50.3,29.91,West,270,9.0,25.0,48,0.00,,,-99.99,Weather View 32 v60,2013-06-03 21:47:00,
2013-06-03 14:57:00,71.0,50.3,29.90,NW,315,15.0,25.0,48,0.00,,,-99.99,Weather View 32 v60,2013-06-03 21:57:00,
2013-06-03 15:02:00,72.0,50.6,29.89,NW,315,9.0,25.0,47,0.00,,,-99.99,Weather View 32 v60,2013-06-03 22:02:00,
2013-06-03 15:12:00,72.0,51.7,29.89,WNW,292,10.0,25.0,49,0.00,,,-99.99,Weather View 32 v60,2013-06-03 22:12:00,
2013-06-03 15:17:00,72.0,51.2,29.89,NW,315,12.0,25.0,48,0.00,,,-99.99,Weather View 32 v60,2013-06-03 22:17:00,
2013-06-03 15:27:00,72.0,51.2,29.89,NW,315,12.0,25.0,48,0.00,,,-99.99,Weather View 32 v60,2013-06-03 22:27:00,
2013-06-03 15:32:00,72.0,51.2,29.88,NW,315,13.0,25.0,48,0.00,,,-99.99,Weather View 32 v60,2013-06-03 22:32:00,
2013-06-03 15:42:00,72.0,51.2,29.89,NW,315,9.0,25.0,48,0.00,,,-99.99,Weather View 32 v60,2013-06-03 22:42:00,
2013-06-03 15:47:00,72.0,50.0,29.89,WNW,292,11.0,25.0,46,0.00,,,-99.99,Weather View 32 v60,2013-06-03 22:47:00,
2013-06-03 15:57:00,72.0,50.0,29.88,NW,315,6.0,25.0,46,0.00,,,-99.99,Weather View 32 v60,2013-06-03 22:57:00,
2013-06-03 16:07:00,73.0,51.5,29.87,West,270,9.0,21.0,47,0.00,,,-99.99,Weather View 32 v60,2013-06-03 23:07:00,
2013-06-03 16:12:00,73.0,50.3,29.87,NW,315,14.0,20.0,45,0.00,,,-99.99,Weather View 32 v60,2013-06-03 23:12:00,
2013-06-03 16:17:00,73.0,51.5,29.87,WNW,292,10.0,20.0,47,0.00,,,-99.99,Weather View 32 v60,2013-06-03 23:17:00,
2013-06-03 16:27:00,73.0,50.9,29.87,NW,315,15.0,24.0,46,0.00,,,-99.99,Weather View 32 v60,2013-06-03 23:27:00,
2013-06-03 16:32:00,73.0,50.9,29.86,NW,315,13.0,24.0,46,0.00,,,-99.99,Weather View 32 v60,2013-06-03 23:32:00,
2013-06-03 16:42:00,73.0,51.5,29.86,NW,315,17.0,24.0,47,0.00,,,-99.99,Weather View 32 v60,2013-06-03 23:42:00,
2013-06-03 16:47:00,73.0,50.9,29.86,West,270,8.0,24.0,46,0.00,,,-99.99,Weather View 32 v60,2013-06-03 23:47:00,
2013-06-03 16:57:00,73.0,51.5,29.86,NW,315,14.0,24.0,47,0.00,,,-99.99,Weather View 32 v60,2013-06-03 23:57:00,
2013-06-03 17:02:00,73.0,50.9,29.86,West,270,16.0,24.0,46,0.00,,,-99.99,Weather View 32 v60,2013-06-04 00:02:00,
2013-06-03 17:12:00,73.0,50.9,29.86,WNW,292,10.0,24.0,46,0.00,,,-99.99,Weather View 32 v60,2013-06-04 00:12:00,
2013-06-03 17:17:00,73.0,50.9,29.86,WNW,292,13.0,24.0,46,0.00,,,-99.99,Weather View 32 v60,2013-06-04 00:17:00,
2013-06-03 17:27:00,73.0,52.1,29.86,WNW,292,10.0,23.0,48,0.00,,,-99.99,Weather View 32 v60,2013-06-04 00:27:00,
2013-06-03 17:32:00,73.0,52.1,29.86,West,270,16.0,26.0,48,0.00,,,-99.99,Weather View 32 v60,2013-06-04 00:32:00,
2013-06-03 17:42:00,73.0,52.1,29.86,NW,315,8.0,26.0,48,0.00,,,-99.99,Weather View 32 v60,2013-06-04 00:42:00,
2013-06-03 17:47:00,73.0,50.9,29.86,WNW,292,11.0,26.0,46,0.00,,,-99.99,Weather View 32 v60,2013-06-04 00:47:00,
2013-06-03 17:57:00,73.0,49.7,29.86,NW,315,8.0,26.0,44,0.00,,,-99.99,Weather View 32 v60,2013-06-04 00:57:00,
2013-06-03 18:07:00,74.0,51.2,29.86,West,270,13.0,27.0,45,0.00,,,-99.99,Weather View 32 v60,2013-06-04 01:07:00,
2013-06-03 18:12:00,74.0,51.8,29.86,West,270,11.0,27.0,46,0.00,,,-99.99,Weather View 32 v60,2013-06-04 01:12:00,
2013-06-03 18:17:00,73.0,50.9,29.86,West,270,12.0,27.0,46,0.00,,,-99.99,Weather View 32 v60,2013-06-04 01:17:00,
2013-06-03 18:27:00,73.0,51.5,29.86,West,270,19.0,27.0,47,0.00,,,-99.99,Weather View 32 v60,2013-06-04 01:27:00,
2013-06-03 18:32:00,73.0,53.2,29.87,WNW,292,10.0,27.0,50,0.00,,,-99.99,Weather View 32 v60,2013-06-04 01:32:00,
2013-06-03 18:42:00,72.0,52.8,29.87,NW,315,6.0,27.0,51,0.00,,,-99.99,Weather View 32 v60,2013-06-04 01:42:00,
2013-06-03 18:52:00,72.0,53.4,29.88,West,270,14.0,27.0,52,0.00,,,-99.99,Weather View 32 v60,2013-06-04 01:52:00,
2013-06-03 19:02:00,71.0,53.5,29.88,WNW,292,12.0,27.0,54,0.00,,,-99.99,Weather View 32 v60,2013-06-04 02:02:00,
2013-06-03 19:07:00,71.0,54.0,29.88,NW,315,13.0,22.0,55,0.00,,,-99.99,Weather View 32 v60,2013-06-04 02:07:00,
2013-06-03 19:17:00,70.0,53.5,29.89,West,270,5.0,22.0,56,0.00,,,-99.99,Weather View 32 v60,2013-06-04 02:17:00,
2013-06-03 19:27:00,70.0,53.5,29.89,NW,315,10.0,21.0,56,0.00,,,-99.99,Weather View 32 v60,2013-06-04 02:27:00,
2013-06-03 19:32:00,70.0,53.5,29.89,NW,315,9.0,21.0,56,0.00,,,-99.99,Weather View 32 v60,2013-06-04 02:32:00,
2013-06-03 19:42:00,70.0,54.0,29.90,NW,315,9.0,21.0,57,0.00,,,-99.99,Weather View 32 v60,2013-06-04 02:42:00,
2013-06-03 19:52:00,69.0,53.6,29.91,West,270,7.0,23.0,58,0.00,,,-99.99,Weather View 32 v60,2013-06-04 02:52:00,
2013-06-03 19:57:00,69.0,53.6,29.91,West,270,16.0,23.0,58,0.00,,,-99.99,Weather View 32 v60,2013-06-04 02:57:00,
2013-06-03 20:02:00,69.0,54.0,29.90,West,270,12.0,23.0,59,0.00,,,-99.99,Weather View 32 v60,2013-06-04 03:02:00,
2013-06-03 20:12:00,68.0,53.1,29.91,NW,315,14.0,23.0,59,0.00,,,-99.99,Weather View 32 v60,2013-06-04 03:12:00,
2013-06-03 20:17:00,68.0,53.6,29.91,West,270,10.0,23.0,60,0.00,,,-99.99,Weather View 32 v60,2013-06-04 03:17:00,
2013-06-03 20:27:00,67.0,52.6,29.91,NW,315,6.0,23.0,60,0.00,,,-99.99,Weather View 32 v60,2013-06-04 03:27:00,
2013-06-03 20:35:00,67.0,53.1,29.92,NW,315,10.0,23.0,61,0.00,,,-99.99,Weather View 32 v60,2013-06-04 03:35:00,
2013-06-03 20:42:00,67.0,53.1,29.93,WNW,292,13.0,23.0,61,0.00,,,-99.99,Weather View 32 v60,2013-06-04 03:42:00,
2013-06-03 20:52:00,66.0,52.6,29.93,WNW,292,9.0,23.0,62,0.00,,,-99.99,Weather View 32 v60,2013-06-04 03:52:00,
2013-06-03 20:57:00,66.0,52.6,29.93,NW,315,7.0,23.0,62,0.00,,,-99.99,Weather View 32 v60,2013-06-04 03:57:00,
2013-06-03 21:02:00,66.0,52.6,29.94,West,270,5.0,23.0,62,0.00,,,-99.99,Weather View 32 v60,2013-06-04 04:02:00,
2013-06-03 21:07:00,66.0,52.6,29.94,NW,315,3.0,23.0,62,0.00,,,-99.99,Weather View 32 v60,2013-06-04 04:07:00,
2013-06-03 21:12:00,66.0,52.6,29.95,NW,315,8.0,20.0,62,0.00,,,-99.99,Weather View 32 v60,2013-06-04 04:12:00,
2013-06-03 21:17:00,65.0,51.6,29.95,NW,315,3.0,16.0,62,0.00,,,-99.99,Weather View 32 v60,2013-06-04 04:17:00,
2013-06-03 21:27:00,65.0,51.6,29.95,West,270,4.0,15.0,62,0.00,,,-99.99,Weather View 32 v60,2013-06-04 04:27:00,
2013-06-03 21:32:00,65.0,51.6,29.95,NW,315,8.0,15.0,62,0.00,,,-99.99,Weather View 32 v60,2013-06-04 04:32:00,
2013-06-03 21:35:00,65.0,51.6,29.95,NW,315,8.0,15.0,62,0.00,,,-99.99,Weather View 32 v60,2013-06-04 04:35:00,
2013-06-03 21:42:00,65.0,51.6,29.95,WNW,292,8.0,15.0,62,0.00,,,-99.99,Weather View 32 v60,2013-06-04 04:42:00,
2013-06-03 21:47:00,65.0,52.1,29.95,NW,315,9.0,15.0,63,0.00,,,-99.99,Weather View 32 v60,2013-06-04 04:47:00,
2013-06-03 21:57:00,64.0,51.1,29.95,NW,315,6.0,15.0,63,0.00,,,-99.99,Weather View 32 v60,2013-06-04 04:57:00,
2013-06-03 22:07:00,64.0,51.5,29.95,NW,315,8.0,18.0,64,0.00,,,-99.99,Weather View 32 v60,2013-06-04 05:07:00,
2013-06-03 22:12:00,64.0,51.5,29.95,WNW,292,12.0,18.0,64,0.00,,,-99.99,Weather View 32 v60,2013-06-04 05:12:00,
2013-06-03 22:17:00,64.0,51.5,29.95,WNW,292,10.0,18.0,64,0.00,,,-99.99,Weather View 32 v60,2013-06-04 05:17:00,
2013-06-03 22:27:00,64.0,51.5,29.95,WNW,292,13.0,18.0,64,0.00,,,-99.99,Weather View 32 v60,2013-06-04 05:27:00,
2013-06-03 22:32:00,64.0,51.5,29.96,NW,315,10.0,18.0,64,0.00,,,-99.99,Weather View 32 v60,2013-06-04 05:32:00,
2013-06-03 22:42:00,64.0,52.0,29.96,NW,315,6.0,18.0,65,0.00,,,-99.99,Weather View 32 v60,2013-06-04 05:42:00,
2013-06-03 22:47:00,63.0,51.8,29.96,NW,315,6.0,18.0,67,0.00,,,-99.99,Weather View 32 v60,2013-06-04 05:47:00,
2013-06-03 22:57:00,63.0,52.2,29.97,WNW,292,8.0,18.0,68,0.00,,,-99.99,Weather View 32 v60,2013-06-04 05:57:00,
2013-06-03 23:07:00,62.0,51.7,29.97,NW,315,6.0,17.0,69,0.00,,,-99.99,Weather View 32 v60,2013-06-04 06:07:00,
2013-06-03 23:17:00,62.0,51.7,29.97,WNW,292,8.0,17.0,69,0.00,,,-99.99,Weather View 32 v60,2013-06-04 06:17:00,
2013-06-03 23:27:00,62.0,52.1,29.98,WNW,292,4.0,17.0,70,0.00,,,-99.99,Weather View 32 v60,2013-06-04 06:27:00,
2013-06-03 23:32:00,62.0,52.1,29.98,West,270,9.0,17.0,70,0.00,,,-99.99,Weather View 32 v60,2013-06-04 06:32:00,
2013-06-03 23:42:00,62.0,52.1,29.98,NW,315,6.0,13.0,70,0.00,,,-99.99,Weather View 32 v60,2013-06-04 06:42:00,
2013-06-03 23:47:00,61.0,51.1,29.98,NW,315,8.0,13.0,70,0.00,,,-99.99,Weather View 32 v60,2013-06-04 06:47:00,
2013-06-03 23:57:00,61.0,51.9,29.98,NW,315,8.0,13.0,72,0.00,,,-99.99,Weather View 32 v60,2013-06-04 06:57:00,